This is the latest recevied weather packets stored in our database for station/object KB1JL-13. If no packets are shown the sender has not sent any weather packets the latest 10 day(s).
| Time | Temp. | Humidity | Pressure | Rain* | Wind** | Luminosity | Snow |
|---|---|---|---|---|---|---|---|
| 1777397019 | 18.89° C | 48% | 1032.2 hPa | 0 mm | - | 529 W/m² | - |
| 1777396716 | 18.33° C | 49% | 1031.8 hPa | 0 mm | - | 507 W/m² | - |
| 1777396412 | 18.89° C | 48% | 1032.2 hPa | 0 mm | - | 478 W/m² | - |
| 1777396109 | 18.89° C | 46% | 1032.2 hPa | 0 mm | - | 563 W/m² | - |
| 1777395805 | 19.44° C | 48% | 1032.2 hPa | 0 mm | - | 635 W/m² | - |
| 1777395501 | 18.89° C | 48% | 1032.2 hPa | 0 mm | - | 620 W/m² | - |
| 1777395198 | 18.89° C | 48% | 1032.2 hPa | 0 mm | - | 640 W/m² | - |
| 1777394896 | 18.33° C | 48% | 1032.5 hPa | 0 mm | - | 654 W/m² | - |
| 1777394591 | 18.33° C | 49% | 1032.2 hPa | 0 mm | - | 644 W/m² | - |
| 1777394288 | 18.33° C | 47% | 1032.5 hPa | 0 mm | - | 672 W/m² | - |
| 1777393984 | 17.78° C | 48% | 1032.2 hPa | 0 mm | - | 693 W/m² | - |
| 1777393683 | 18.33° C | 48% | 1032.5 hPa | 0 mm | - | 710 W/m² | - |
| 1777393379 | 18.33° C | 50% | 1032.5 hPa | 0 mm | - | 635 W/m² | - |
| 1777393075 | 18.33° C | 51% | 1032.5 hPa | 0 mm | - | 535 W/m² | - |
| 1777392771 | 18.33° C | 49% | 1032.5 hPa | 0 mm | - | 460 W/m² | - |
| 1777392467 | 18.33° C | 49% | 1032.5 hPa | 0 mm | - | 567 W/m² | - |
| 1777392163 | 18.89° C | 48% | 1032.5 hPa | 0 mm | - | 626 W/m² | - |
| 1777391859 | 18.33° C | 48% | 1032.5 hPa | 0 mm | - | 648 W/m² | - |
| 1777391554 | 18.33° C | 52% | 1032.5 hPa | 0 mm | - | 625 W/m² | - |
| 1777391250 | 17.78° C | 51% | 1032.5 hPa | 0 mm | - | 661 W/m² | - |
| 1777390948 | 18.33° C | 49% | 1032.8 hPa | 0 mm | - | 595 W/m² | - |
| 1777390643 | 18.33° C | 46% | 1032.8 hPa | 0 mm | - | 690 W/m² | - |
| 1777390341 | 17.78° C | 48% | 1033.2 hPa | 0 mm | - | 701 W/m² | - |
| 1777390036 | 18.33° C | 50% | 1032.8 hPa | 0 mm | - | 727 W/m² | - |
| 1777389734 | 18.89° C | 49% | 1032.8 hPa | 0 mm | - | 763 W/m² | - |
* Rain latest hour (hover to see other rain measurements)
** Current wind speed in m/s (hover to see current wind gust speed)